Regional Weather Roundup
Issued by NWS

Home | Current Version | Previous Version | Text Only | Print | Product List | Glossary On
Versions: 1 2 3 4 5 6 7 8 9 10 11 12 13 14 15 16 17 18 19 20 21 22 23 24 25 26 27 28 29 30 31 32 33 34 35 36 37 38 39 40 41 42 43 44 45 46 47 48 49 50
000
ASUS46 KSEW 311810
RWRWA

WASHINGTON REGIONAL WEATHER ROUNDUP
NATIONAL WEATHER SERVICE SEATTLE WA
1100 AM PDT FRI JUL 31 2015

NOTE:"FAIR" INDICATES FEW OR NO CLOUDS BELOW 12,000 FEET WITH NO
SIGNIFICANT WEATHER AND/OR OBSTRUCTIONS TO VISIBILITY.

WAZ505-507>509-311900-
SEATTLE, TACOMA, EVERETT, AND VICINITY

CITY           SKY/WX    TMP DP  RH WIND       PRES   REMARKS
EVERETT        SUNNY     75  51  43 VRB5      30.12S
6HR MIN TEMP:  63; 6HR MAX TEMP:  75;

BOEING FIELD   SUNNY     81  49  32 NW5       30.08F
6HR MIN TEMP:  66; 6HR MAX TEMP:  82;

RENTON         SUNNY     80  51  36 NW8       30.08F
6HR MIN TEMP:  60; 6HR MAX TEMP:  80;

SEATAC AIRPORT MOSUNNY   80  51  36 NW3       30.11S
6HR MIN TEMP:  64; 6HR MAX TEMP:  81;

JBLM-MCCHORD   SUNNY     83  48  29 VRB5      30.08F
6HR MIN TEMP:  51; 6HR MAX TEMP:  83; 6HR PCP: TRACE;

PUYALLUP       FAIR      84  43  23 CALM      30.10S
BREMERTON      SUNNY     82  50  32 N5        30.12S
6HR MIN TEMP:  52; 6HR MAX TEMP:  82;

JBLM-FT LEWIS  SUNNY     82  48  30 N5        30.08F
6HR MIN TEMP:  52; 6HR MAX TEMP:  82;

TACOMA NARROWS SUNNY     78  45  30 VRB6      30.10S
6HR MIN TEMP:  60; 6HR MAX TEMP:  78;

$$

WAZ001-503-506-510-514-515-311900-
NORTH INTERIOR

CITY           SKY/WX    TMP DP  RH WIND       PRES   REMARKS
BELLINGHAM     SUNNY     74  60  61 VRB3      30.09F
6HR MIN TEMP:  54; 6HR MAX TEMP:  74;

FRIDAY HARBOR  SUNNY     72  53  51 SE5       30.11S
6HR MIN TEMP:  51; 6HR MAX TEMP:  72;

EASTSOUND      SUNNY     70  57  64 N6        30.09S
PORT ANGELES   SUNNY     71  52  50 N5        30.12S
6HR MIN TEMP:  51; 6HR MAX TEMP:  71;

PORT TOWNSEND  FAIR      75  52  43 VRB6      30.10S
NAS WHIDBEY    MOSUNNY   62  54  74 W6        30.14S
6HR MIN TEMP:  54; 6HR MAX TEMP:  63;

ARLINGTON      SUNNY     77  54  44 S3        30.10S
6HR MIN TEMP:  54; 6HR MAX TEMP:  77;

BURLINGTON       N/A     77  55  47 VRB6      30.09F
$$

WAZ020-022-039-040-504-511-512-311900-
SOUTHWEST INTERIOR

CITY           SKY/WX    TMP DP  RH WIND       PRES   REMARKS
SHELTON        SUNNY     82  42  24 E8        30.07S
6HR MIN TEMP:  50; 6HR MAX TEMP:  83;

OLYMPIA        SUNNY     79  50  36 CALM      30.09F
6HR MIN TEMP:  50; 6HR MAX TEMP:  80;

CHEHALIS       FAIR      81  55  41 NW6       30.08F
KELSO          SUNNY     79  54  41 W7        30.09F
6HR MIN TEMP:  55; 6HR MAX TEMP:  79;

VANCOUVER      SUNNY     83  49  30 N5        30.04F
6HR MIN TEMP:  60; 6HR MAX TEMP:  83;

SCAPPOOSE, OR  SUNNY     84  54  35 VRB6      30.04F
6HR MIN TEMP:  56; 6HR MAX TEMP:  84;

PORTLAND, OR   MOSUNNY   81  53  37 W6        30.05S
6HR MIN TEMP:  64; 6HR MAX TEMP:  82;

$$

WAZ021-516-517-311900-
WASHINGTON COAST

CITY           SKY/WX    TMP DP  RH WIND       PRES   REMARKS
FORKS          SUNNY     73  61  65 SW6       30.11S
6HR MIN TEMP:  50; 6HR MAX TEMP:  74;

HOQUIAM        SUNNY     65  55  70 SW7       30.11S
6HR MIN TEMP:  56; 6HR MAX TEMP:  65;

ASTORIA, OR    SUNNY     71  57  61 N8        30.09S
6HR MIN TEMP:  51; 6HR MAX TEMP:  71;

$$

WAZ019-023-024-040-518-519-311900-
CASCADE MOUNTAINS AND COLUMBIA GORGE

CITY           SKY/WX    TMP DP  RH WIND       PRES   REMARKS
TROUTDALE, OR    N/A     81  53  37 MISG      30.04S
THE DALLES, OR SUNNY     85  47  26 CALM      29.99F
6HR MIN TEMP:  63; 6HR MAX TEMP:  85;

$$

WAZ026-027-041>044-520-521-311900-
EAST SLOPES

CITY           SKY/WX    TMP DP  RH WIND       PRES   REMARKS
OMAK           SUNNY     90  37  15 VRB7      30.05F
6HR MIN TEMP:  56; 6HR MAX TEMP:  90;

WENATCHEE      SUNNY     86  36  16 VRB5      30.04F
6HR MIN TEMP:  69; 6HR MAX TEMP:  86;

ELLENSBURG     SUNNY     86  48  26 VRB3      30.08F
6HR MIN TEMP:  54; 6HR MAX TEMP:  86;

YAKIMA         SUNNY     92  45  19 VRB6      30.04F
6HR MIN TEMP:  58; 6HR MAX TEMP:  92;

$$

WAZ028-034-035-311900-
COLUMBIA BASIN

CITY           SKY/WX    TMP DP  RH WIND       PRES   REMARKS
EPHRATA        SUNNY     94  36  13 NE3       30.03F
6HR MIN TEMP:  61; 6HR MAX TEMP:  94;

MOSES LAKE     SUNNY     93  36  13 VRB3      30.04F
6HR MIN TEMP:  57; 6HR MAX TEMP:  93;

PASCO          SUNNY     88  47  24 VRB5      30.01F
6HR MIN TEMP:  55; 6HR MAX TEMP:  88;

HERMISTON, OR  SUNNY     87  44  22 N5        30.02S
6HR MIN TEMP:  57; 6HR MAX TEMP:  87;

$$

WAZ036>038-311900-
NORTHEAST WASHINGTON

CITY           SKY/WX    TMP DP  RH WIND       PRES   REMARKS
SPOKANE GEIGER MOSUNNY   87  42  20 NE5       30.12S
6HR MIN TEMP:  63; 6HR MAX TEMP:  87;

SPOKANE FELTS  SUNNY     88  43  20 SE3       30.10F
6HR MIN TEMP:  56; 6HR MAX TEMP:  88;

FAIRCHILD AFB  SUNNY     89  35  14 VRB3      30.12S
6HR MIN TEMP:  60; 6HR MAX TEMP:  89; 6HR PCP: TRACE;

COEURDALENE,ID SUNNY     84  43  23 SE6       30.11F
6HR MIN TEMP:  55; 6HR MAX TEMP:  84;

DEER PARK      SUNNY     86  41  20 VRB6      30.12F
6HR MIN TEMP:  47; 6HR MAX TEMP:  86;

$$

WAZ029>033-311900-
SOUTHEAST WASHINGTON

CITY           SKY/WX    TMP DP  RH WIND       PRES   REMARKS
PULLMAN        SUNNY     90  37  15 E7        30.15F
6HR MIN TEMP:  60; 6HR MAX TEMP:  90;

LEWISTON, ID   SUNNY     87  43  21 VRB3      30.08F
6HR MIN TEMP:  66; 6HR MAX TEMP:  87;

WALLA WALLA    SUNNY     92  35  13 SW6       30.04S
6HR MIN TEMP:  69; 6HR MAX TEMP:  92;

PENDLETON, OR  SUNNY     91  37  15 VRB6      30.06S
6HR MIN TEMP:  64; 6HR MAX TEMP:  92;

$$


USA.gov is the U.S. government's official web portal to all federal, state and local government web resources and services.